Wind_Speed
10 10 11 11 12 12 12 11 10 10 11 12 12 13 15 14 15 16 16 15 16 15 14 13 12 10 9 8 7 7 6 6 5 5 4 3 3 2 2 1 0 1 1
11 13 12 12 12 12 13 13 11 11 12 12 12 12 15 15 15 17 16 16 16 16 15 15 13 12 10 10 9 8 8 7 7 6 5 5 4 4 3 2 1 1 0
12 13 13 12 12 13 13 13 12 10 9 10 11 12 14 15 15 15 16 17 17 17 16 15 14 13 12 11 10 10 9 9 8 7 7 7 6 5 5 4 3 2 2
13 13 12 12 11 12 13 12 10 10 10 10 11 12 14 15 16 16 17 17 17 17 17 15 15 14 13 12 12 11 11 10 10 9 9 8 8 7 6 5 5 4 4
12 11 11 11 11 12 12 11 11 10 9 9 10 12 14 15 17 18 17 16 17 18 18 16 15 14 14 13 13 13 12 11 11 11 10 10 9 8 8 7 7 6 6
10 10 10 10 10 11 11 11 11 10 9 9 10 12 13 15 16 17 17 17 17 17 18 17 16 16 15 15 14 14 13 12 12 12 11 11 10 10 9 9 9 8 8
10 9 9 9 10 11 11 11 11 10 10 10 11 12 13 15 16 17 18 18 18 18 18 18 17 17 17 16 15 15 15 14 13 13 13 13 12 12 12 11 11 11 11
8 8 8 8 9 10 11 11 11 10 10 11 12 13 13 14 15 16 17 19 19 19 19 19 19 18 18 17 17 17 17 16 15 15 15 15 15 15 14 14 14 14 14
8 8 9 9 10 11 12 11 11 10 10 11 11 12 13 13 15 16 17 18 18 19 20 20 20 20 19 18 17 18 18 17 16 16 17 17 18 18 18 17 17 16 16
9 9 9 10 11 12 12 11 12 11 11 11 12 12 13 14 15 17 17 18 19 19 20 21 21 21 21 20 20 19 19 18 18 18 18 19 19 20 20 20 19 19 19
11 11 11 12 12 13 12 11 12 12 11 10 11 12 13 14 15 16 18 19 20 20 20 22 22 22 22 22 22 21 21 20 20 20 20 20 21 21 21 22 22 22 21
11 11 12 13 13 12 12 12 11 11 11 10 11 12 12 13 15 15 16 18 19 20 20 21 22 22 23 23 23 23 23 23 22 22 22 22 22 22 23 23 23 23 23
11 11 12 13 12 12 12 12 11 11 11 11 12 13 13 13 14 15 16 16 17 19 20 21 22 22 22 24 24 25 25 24 24 24 24 24 24 24 24 24 25 25 25
14 14 14 14 14 13 12 12 12 11 11 12 12 12 12 13 14 15 15 16 17 18 20 21 22 23 23 24 25 25 25 26 27 27 27 27 26 26 26 26 26 26 27
16 16 15 15 14 14 13 13 12 12 11 11 11 12 12 12 12 13 14 16 17 19 20 20 21 22 22 22 24 25 25 26 27 27 28 28 27 27 26 26 27 27 28
17 17 17 16 15 15 15 14 14 13 12 12 12 12 12 12 13 13 14 15 17 18 20 21 21 22 22 22 23 24 25 25 26 27 27 27 27 28 28 28 28 29 30
17 18 17 17 17 16 16 16 16 15 14 13 13 13 13 13 13 14 15 16 17 17 18 20 21 22 23 23 24 24 25 25 25 26 28 28 28 29 30 30 30 31 33
19 20 19 18 18 18 18 18 17 16 15 14 14 14 14 14 15 15 15 16 17 18 19 20 21 22 23 24 24 24 26 27 27 27 27 29 30 30 31 32 33 33 34
21 21 21 20 20 19 19 19 19 18 17 16 16 16 16 16 16 16 16 16 17 18 19 19 21 22 23 24 25 25 26 26 26 26 28 29 30 31 32 33 34 35 36
23 22 22 22 22 21 20 20 20 19 18 18 18 17 16 16 16 17 17 18 18 19 20 20 21 22 23 25 25 26 26 26 27 28 29 29 30 31 33 34 35 36 36
24 23 23 23 22 22 22 21 21 20 20 19 19 19 19 18 18 18 18 19 20 20 21 22 22 22 24 25 26 26 26 27 28 29 29 29 30 32 33 33 34 35 36
24 24 23 23 22 22 22 22 22 21 21 20 19 19 19 20 19 19 19 19 19 20 21 23 24 25 26 27 27 27 28 28 29 29 30 30 31 33 33 34 35 36 38
24 24 24 24 23 23 23 22 22 21 21 21 20 20 20 20 20 20 21 21 21 22 23 24 25 26 27 27 27 28 28 29 30 30 31 33 33 34 35 36 36 38 39
24 24 23 23 23 22 22 22 22 21 21 21 21 21 21 21 21 22 23 23 23 24 24 24 24 25 26 27 28 29 29 30 31 32 34 35 36 36 37 37 38 40 41
24 23 22 22 22 22 21 21 22 22 22 22 22 22 22 22 22 23 24 25 24 24 24 24 25 26 27 28 29 30 31 32 32 33 35 35 36 37 38 39 40 41 42
23 23 22 22 22 22 22 21 21 21 21 22 23 23 22 22 22 23 24 24 24 24 25 26 27 28 29 30 31 31 32 32 33 34 34 35 36 37 38 39 41 42 43
Wind_Direction
291 299 305 307 311 312 313 311 301 281 272 261 251 242 234 229 228 227 226 226 222 222 226 225 224 223 221 222 222 223 224 219 218 217 216 214 220 233 245 256 307 5 14
295 301 300 303 307 308 307 305 301 292 276 257 243 237 231 231 231 230 228 226 225 226 227 227 226 223 223 224 225 226 224 222 221 220 220 222 226 229 230 234 237 252 292
297 300 300 300 303 303 302 300 297 295 280 257 244 238 232 232 232 231 229 228 228 228 227 227 226 225 226 226 227 227 226 224 224 223 225 230 231 231 235 238 241 247 255
294 294 294 296 300 302 301 301 305 295 282 262 250 244 237 233 233 231 231 230 228 226 225 227 226 226 228 230 230 229 228 227 227 227 229 231 233 237 242 247 251 253 257
294 291 291 295 299 303 305 302 298 296 283 261 250 251 243 239 236 233 232 229 226 225 226 226 225 227 229 231 232 231 230 231 231 231 231 233 236 241 247 254 257 256 257
293 292 294 295 301 303 302 304 300 294 283 268 257 257 247 240 235 233 233 229 228 228 228 228 229 231 232 234 234 232 231 232 233 233 233 236 240 245 249 255 258 260 262
289 294 299 300 305 308 305 306 306 297 282 275 267 260 249 240 237 236 235 231 231 230 230 230 232 232 233 234 235 235 233 233 236 238 239 241 245 248 251 256 259 262 265
283 290 296 302 308 310 309 308 308 297 282 277 270 263 255 246 242 240 237 233 232 229 231 232 232 232 232 235 235 235 234 236 240 241 242 244 247 249 253 257 260 262 264
276 284 288 293 304 311 311 305 302 292 283 279 274 265 259 252 247 243 238 232 231 231 233 232 233 234 233 235 236 237 237 238 241 245 247 248 250 252 255 258 260 262 264
271 278 285 292 300 306 308 300 298 292 285 283 278 270 261 254 248 245 237 234 234 234 235 233 233 234 235 236 237 238 239 241 245 248 250 253 254 255 256 258 260 263 266
270 275 280 287 293 299 302 296 294 290 285 286 277 264 259 255 248 243 237 234 235 236 236 233 234 236 237 238 238 239 242 245 248 251 254 256 257 258 259 260 263 264 266
269 270 276 283 288 293 296 293 291 290 286 280 276 266 260 257 248 242 242 240 238 237 236 235 238 240 240 241 241 242 244 247 251 254 254 256 257 258 261 263 265 266 268
266 270 274 279 287 292 293 291 288 289 289 283 275 268 262 259 251 243 243 241 241 238 238 240 241 242 242 243 245 246 247 250 253 255 257 257 258 258 261 263 265 267 269
264 268 272 277 282 287 289 289 289 290 291 287 280 272 267 261 253 246 243 241 241 240 241 242 242 244 245 247 246 247 249 253 254 256 258 258 258 259 262 264 265 266 267
264 266 271 274 276 281 284 284 286 288 289 286 282 280 275 265 257 250 243 242 242 240 241 243 244 245 248 249 248 248 251 255 256 258 259 259 262 262 263 264 265 266 268
265 266 270 271 272 277 279 280 283 286 284 281 279 278 274 266 259 255 249 247 246 245 245 245 246 247 249 250 249 252 255 256 257 259 261 262 264 265 265 266 266 267 269
264 267 268 270 272 276 277 277 277 278 278 276 275 274 270 264 259 254 252 251 248 247 249 250 249 249 252 253 252 252 255 258 259 259 260 262 265 266 267 268 269 269 269
266 267 267 269 272 276 278 275 274 273 273 270 271 270 270 266 261 256 253 253 250 250 251 252 253 253 254 255 255 257 259 261 262 263 264 265 266 267 269 270 272 273 273
265 265 265 267 270 274 276 274 273 272 271 271 270 268 268 267 264 261 256 255 253 253 254 257 256 256 255 256 257 260 262 262 264 267 268 269 269 270 271 273 275 277 277
262 263 264 265 268 271 272 273 271 270 269 268 269 267 267 266 264 264 260 257 256 258 259 259 259 260 259 260 263 266 268 269 271 273 274 273 274 275 276 278 278 280 279
262 264 265 265 266 267 269 270 269 268 267 267 267 266 267 266 266 266 263 262 261 262 261 261 263 263 264 265 266 268 271 273 275 276 276 276 277 278 279 280 281 280 281
262 264 263 262 263 264 266 267 267 266 265 265 265 266 266 265 265 265 266 264 263 263 264 264 265 265 266 268 269 272 273 275 277 277 278 279 281 283 283 283 282 282 281
261 262 262 260 261 263 264 265 265 265 265 266 266 266 266 264 264 265 267 268 267 266 266 267 268 269 269 269 272 274 276 278 279 279 280 282 283 285 285 285 285 284 285
261 262 261 261 261 262 263 263 264 264 264 265 265 266 266 266 265 266 267 268 268 267 267 267 269 271 272 273 275 278 279 280 281 282 283 283 284 286 287 288 288 287 287
261 261 260 261 261 261 263 263 263 263 263 264 265 267 269 267 268 268 268 270 271 271 270 271 273 275 275 276 279 280 282 284 286 287 287 286 287 288 289 289 289 288 288
257 259 261 262 262 263 264 264 264 264 264 265 265 267 268 267 268 269 271 272 273 273 274 276 277 278 278 279 282 284 286 288 289 289 289 290 290 291 290 290 291 290 290
Height
5881 5880 5879 5877 5876 5874 5872 5871 5870 5869 5869 5869 5869 5870 5872 5874 5876 5878 5879 5881 5883 5885 5887 5889 5890 5891 5893 5894 5895 5895 5896 5897 5898 5899 5899 5899 5899 5900 5900 5900 5899 5899 5899
5879 5878 5876 5875 5873 5872 5870 5869 5867 5866 5866 5866 5866 5868 5869 5871 5873 5875 5877 5879 5881 5883 5885 5887 5888 5889 5891 5892 5893 5894 5895 5896 5897 5897 5898 5899 5900 5899 5899 5899 5899 5899 5899
5876 5875 5873 5872 5870 5869 5867 5866 5864 5864 5863 5863 5864 5865 5867 5868 5871 5873 5875 5876 5878 5880 5883 5884 5886 5888 5889 5890 5892 5893 5894 5895 5896 5896 5897 5898 5898 5899 5899 5899 5899 5899 5899
5873 5872 5870 5869 5868 5866 5865 5864 5862 5862 5861 5861 5862 5863 5864 5866 5868 5869 5871 5874 5876 5878 5880 5882 5884 5885 5887 5888 5890 5891 5892 5893 5894 5895 5896 5897 5897 5898 5898 5898 5898 5898 5898
5870 5869 5867 5866 5865 5863 5862 5861 5860 5860 5859 5859 5860 5861 5862 5863 5865 5867 5869 5871 5873 5875 5877 5879 5881 5883 5884 5886 5887 5888 5890 5891 5892 5893 5894 5895 5895 5896 5897 5897 5897 5897 5897
5868 5866 5865 5864 5863 5862 5861 5859 5858 5857 5857 5857 5858 5858 5859 5860 5862 5864 5866 5868 5870 5872 5874 5876 5878 5880 5882 5883 5884 5886 5887 5889 5890 5891 5892 5893 5893 5894 5894 5895 5895 5895 5895
5866 5864 5863 5862 5861 5860 5859 5857 5856 5855 5855 5855 5855 5856 5856 5857 5859 5860 5862 5864 5866 5869 5871 5873 5875 5877 5879 5880 5882 5883 5885 5886 5887 5888 5889 5890 5891 5891 5892 5892 5892 5892 5892
5863 5863 5861 5860 5859 5858 5856 5855 5854 5853 5853 5852 5853 5853 5853 5854 5855 5857 5858 5860 5863 5865 5867 5869 5871 5873 5875 5877 5879 5880 5881 5883 5884 5885 5886 5887 5887 5888 5889 5889 5889 5889 5889
5861 5860 5859 5858 5856 5855 5854 5852 5851 5851 5850 5850 5849 5849 5850 5851 5852 5853 5854 5856 5859 5861 5863 5866 5868 5870 5872 5873 5875 5876 5878 5879 5880 5881 5882 5883 5883 5884 5885 5885 5885 5886 5885
5858 5857 5856 5855 5854 5853 5851 5850 5849 5848 5847 5847 5846 5846 5846 5847 5848 5849 5851 5852 5855 5857 5859 5862 5864 5866 5868 5870 5871 5873 5874 5875 5876 5877 5878 5879 5879 5880 5880 5880 5880 5881 5881
5855 5855 5854 5853 5852 5850 5849 5847 5846 5845 5844 5843 5843 5843 5844 5844 5844 5845 5847 5848 5850 5852 5854 5857 5860 5862 5864 5865 5867 5868 5870 5871 5872 5872 5873 5873 5874 5875 5875 5875 5875 5875 5875
5853 5852 5851 5850 5849 5848 5847 5845 5844 5843 5842 5841 5841 5841 5841 5840 5841 5842 5843 5844 5846 5848 5850 5853 5855 5857 5859 5861 5862 5864 5865 5866 5867 5867 5868 5868 5869 5869 5869 5870 5870 5870 5869
5849 5849 5848 5847 5846 5846 5844 5843 5841 5840 5839 5838 5838 5838 5838 5837 5837 5838 5839 5841 5842 5844 5846 5848 5850 5852 5854 5855 5857 5858 5859 5860 5861 5862 5862 5863 5863 5863 5863 5863 5863 5863 5863
5846 5846 5845 5844 5844 5843 5842 5840 5839 5838 5837 5836 5835 5834 5835 5835 5835 5835 5836 5837 5838 5840 5842 5844 5845 5847 5848 5849 5851 5852 5853 5854 5855 5856 5856 5856 5857 5857 5857 5857 5857 5857 5856
5842 5842 5841 5841 5840 5840 5838 5837 5836 5835 5834 5833 5833 5832 5832 5832 5832 5832 5833 5834 5835 5836 5838 5839 5841 5842 5843 5844 5845 5846 5847 5848 5849 5849 5849 5850 5850 5850 5850 5850 5850 5850 5849
5838 5838 5837 5837 5836 5836 5835 5834 5833 5833 5832 5831 5830 5830 5830 5830 5829 5830 5830 5831 5831 5832 5833 5835 5836 5837 5838 5839 5840 5841 5841 5842 5842 5842 5842 5843 5843 5843 5843 5843 5843 5842 5842
5833 5833 5833 5832 5832 5832 5831 5830 5830 5829 5829 5828 5828 5827 5827 5827 5827 5827 5827 5827 5828 5829 5829 5830 5831 5832 5833 5834 5835 5835 5835 5835 5835 5835 5835 5836 5836 5836 5836 5835 5835 5834 5833
5828 5828 5828 5828 5828 5828 5827 5826 5826 5825 5825 5825 5825 5824 5824 5824 5823 5823 5823 5824 5824 5825 5825 5825 5826 5827 5828 5828 5829 5829 5829 5829 5829 5829 5828 5828 5828 5828 5827 5827 5826 5825 5824
5823 5823 5823 5823 5823 5823 5822 5822 5821 5821 5821 5821 5821 5820 5820 5820 5820 5820 5820 5820 5820 5820 5821 5821 5821 5822 5822 5822 5823 5823 5823 5822 5822 5822 5821 5821 5820 5820 5819 5818 5817 5816 5815
5816 5817 5817 5817 5818 5818 5817 5817 5817 5816 5816 5816 5816 5816 5816 5816 5816 5815 5815 5815 5816 5816 5816 5816 5816 5816 5816 5817 5817 5817 5816 5816 5815 5815 5814 5813 5812 5812 5811 5809 5808 5806 5804
5810 5811 5811 5811 5812 5812 5812 5811 5811 5811 5811 5811 5811 5811 5811 5811 5811 5811 5811 5811 5811 5811 5811 5811 5811 5811 5811 5811 5810 5810 5810 5809 5808 5807 5806 5805 5804 5803 5801 5800 5798 5796 5794
5804 5804 5805 5805 5805 5806 5806 5806 5805 5805 5805 5805 5805 5805 5805 5806 5806 5806 5806 5806 5806 5806 5806 5805 5805 5805 5804 5804 5803 5803 5802 5801 5800 5799 5797 5796 5795 5793 5792 5790 5788 5786 5784
5797 5797 5798 5798 5799 5799 5800 5800 5800 5799 5800 5800 5800 5800 5800 5800 5800 5801 5801 5800 5800 5800 5800 5799 5799 5798 5798 5797 5796 5796 5795 5793 5792 5790 5789 5787 5786 5784 5782 5780 5777 5775 5773
5790 5791 5791 5791 5792 5793 5793 5793 5793 5794 5794 5794 5794 5794 5794 5794 5794 5794 5794 5794 5794 5794 5793 5793 5792 5791 5791 5790 5789 5788 5786 5785 5783 5781 5780 5778 5776 5774 5771 5769 5766 5764 5761
5783 5784 5784 5785 5786 5786 5787 5787 5787 5787 5788 5788 5788 5788 5788 5788 5788 5788 5788 5788 5787 5787 5787 5786 5785 5785 5784 5783 5781 5780 5778 5776 5774 5772 5770 5768 5765 5763 5760 5758 5755 5752 5749
5777 5777 5778 5779 5779 5780 5780 5781 5781 5781 5781 5782 5782 5782 5782 5782 5781 5781 5781 5780 5780 5780 5780 5779 5779 5777 5776 5775 5773 5771 5769 5767 5765 5762 5760 5757 5755 5752 5749 5746 5743 5740 5736